Showing default

BEIDOU 3M20, 44865

Orbit data source: Space-Track

BEIDOU 3M20, 44865 is a payload satellite owned by CNSA (CN) in MEO that was launched on Mon, 16 Dec 2019 UTC via a CHANG ZHENG 3B/YZ-1 launch vehicle from the Xichang Space Center, China (XSC). Payload-class satellites include a variety of spacecraft equipped with specific instruments for various scientific and technological missions. These include communications satellites like Starlink; space stations such as the ISS; scientific satellites like the Hubble; Earth observation satellites from companies like Planet Labs, Umbra, and HawkEye 360; GPS; miniature CubeSats for education and research; and military/defense satellites.

Loading next visibility...
Identifier
44865, 2019-090B
Orbit
MEO
Country
Flag of CNCN / PRC
Related business
Manufacturer
CAST
Mission
Operational Defense Navigation
Bus & Motor
BD-3M, Unknown motor
Mass
1,014 kg wet, ~850 kg dry
Launch date (UTC)
2019-12-16 (6 years ago)
Launch vehicle
CHANG ZHENG 3B/YZ-1
Launch site
Xichang Space Center, China (XSC)
Object type
Payload
Rocket body
Debris
Shape & HBR
Box + 2 Pan, Unknown HBR
Radar Cross Section
8.984 m², Large (>1 m²)

Expand to show TLE details & history
Last TLE update: 8 hours ago

TLE from 8 hours ago
0 BEIDOU 3M20
1 44865U 19090B   26127.28755810 -.00000026  00000-0  00000-0 0  9999
2 44865  56.5262  64.1768 0017151 308.7287 253.6657  1.86231831 43450
Epoch: 2026-05-07T06:54Z
TLE epoch observation values (Epoch: 2026-05-07T06:54:05.019Z)
Latitude
-18.45708°
Longitude
-71.76488°
Altitude
21,546.275 km
Speed
3.777 km/s
True Right ascension
17h 07m 34s
True Declination
-18° 25' 51"
Sunlit
Object was in daylight at epoch
Visualization orbit readout
Latitude
Unknown
Longitude
Unknown
Altitude
Unknown
Speed
Unknown
Apparent Right ascension
Unknown
Apparent Declination
Unknown
Sunlit
N/A
Visualization observer readout
Local Sidereal Time
22:31:46
Azimuth
Unknown
Elevation
Unknown
Doppler factor
Unknown
Orbital elements
Apogee altitude
21,575.778 km
Perigee altitude
21,480.055 km
Semi-major axis
27,906.054 km
Eccentricity
0.00172
Inclination
56.5262°
RAAN
64.1768°
Arg. of periapsis
308.7287°
True anomaly
253.47721°
Mean anomaly
253.6657°
Eccentric anomaly
253.57144°
Mean motion
0.46558 °/min
Orbital period
773.23 mins
BSTAR
0
Loading maneuver chart data...
Computing Atmospheric mass density...
Loading historical data...
Loading historical data...
Loading historical data...
Loading historical data...
Loading historical data...
Loading historical data...
Loading historical data...
Other satellites on launch #90 in the year 2019 (2019-12-16 UTC)

Documentation

Showing up to 5 results
|